Parkersburg, WV

1:29 PM EDT on October 20, 2019 (GMT -0400)
Wood County Wilson

Weather History for KPKB - September, 2019

Change the Weather History Date:

Saturday, September 21, 2019

  Actual Average Record
Temperature  
Mean Temperature 76 °F 64 °F  
Max Temperature 88 °F 75 °F 94 °F (1931)
Min Temperature 63 °F 53 °F 33 °F (1956)
Degree Days  
Heating Degree Days 0 3  
Month to date heating degree days 0 30  
Since 1 July heating degree days 0 35  
Cooling Degree Days 10 2  
Month to date cooling degree days 173 90  
Year to date cooling degree days 1143 920  
Growing Degree Days 26 (Base 50)    
Moisture  
Dew Point 64 °F    
Average Humidity 73    
Maximum Humidity 93    
Minimum Humidity 48    
Precipitation  
Precipitation 0.00 in 0.10 in 1.79 in (1979)
Month to date precipitation 0.32 2.18  
Year to date precipitation 33.77 30.97  
Sea Level Pressure  
Sea Level Pressure 30.23 in    
Wind  
Wind Speed 3 mph ()    
Max Wind Speed 16 mph    
Max Gust Speed 24 mph    
Visibility 9.5 miles    
Events      
T = Trace of Precipitation, MM = Missing Value Source: Averaged Metar Reports

Daily Weather History Graph

Daily Weather History Graph

Search for Another Location

Airport or City:

Astronomy

Sep. 21, 2019 Rise Set
Actual Time 7:12 AM EDT 7:24 PM EDT
Civil Twilight 6:45 AM EDT 7:51 PM EDT
Nautical Twilight 6:14 AM EDT 8:22 PM EDT
Astronomical Twilight 5:42 AM EDT 8:54 PM EDT
Moon No Moon Rise 2:14 PM EDT (9/21)
Length of Visible Light 13h 06m
Length of Day
12h 12m
Waning Gibbous, 55% of the Moon is Illuminated
Sep 21
Waning Gibbous
Sep 21
Last Quarter
Sep 28
New
Oct 5
First Quarter
Oct 13
Full

Hourly Weather History & Observations

Time (EDT) Temp. Heat Index Dew Point Humidity Pressure Visibility Wind Dir Wind Speed Gust Speed Precip Events Conditions
12:53 AM 66.9 °F - 64.0 °F 90% 30.22 in 10.0 mi Calm Calm - N/A   Clear
1:53 AM 66.0 °F - 63.0 °F 90% 30.22 in 8.0 mi Calm Calm - N/A   Clear
2:53 AM 66.9 °F - 63.0 °F 87% 30.22 in 10.0 mi Calm Calm - N/A   Clear
3:53 AM 64.0 °F - 62.1 °F 93% 30.22 in 8.0 mi Calm Calm - N/A   Clear
4:53 AM 64.0 °F - 62.1 °F 93% 30.23 in 8.0 mi Calm Calm - N/A   Mostly Cloudy
5:53 AM 64.0 °F - 62.1 °F 93% 30.24 in 7.0 mi SSE 3.5 mph - N/A   Clear
6:53 AM 63.0 °F - 61.0 °F 93% 30.25 in 9.0 mi SSE 3.5 mph - N/A   Mostly Cloudy
7:53 AM 64.9 °F - 62.1 °F 90% 30.27 in 8.0 mi Calm Calm - N/A   Clear
8:53 AM 69.1 °F - 64.0 °F 84% 30.28 in 10.0 mi SSE 3.5 mph - N/A   Clear
9:53 AM 75.0 °F - 64.9 °F 71% 30.28 in 10.0 mi WSW 4.6 mph - N/A   Clear
10:53 AM 80.1 °F 82.1 °F 66.0 °F 62% 30.28 in 10.0 mi WSW 5.8 mph - N/A   Clear
11:53 AM 82.9 °F 85.0 °F 66.0 °F 56% 30.27 in 10.0 mi SW 8.1 mph - N/A   Clear
12:53 PM 84.0 °F 86.3 °F 66.0 °F 55% 30.26 in 10.0 mi West 11.5 mph 24.2 mph N/A   Partly Cloudy
1:53 PM 84.9 °F 87.1 °F 66.0 °F 53% 30.23 in 10.0 mi SW 12.7 mph 17.3 mph N/A   Scattered Clouds
2:53 PM 84.9 °F 86.1 °F 64.0 °F 49% 30.22 in 10.0 mi West 9.2 mph 16.1 mph N/A   Clear
3:53 PM 86.0 °F 87.3 °F 64.0 °F 48% 30.21 in 10.0 mi WNW 9.2 mph - N/A   Scattered Clouds
4:53 PM 86.0 °F 87.3 °F 64.0 °F 48% 30.20 in 10.0 mi West 9.2 mph 17.3 mph N/A   Partly Cloudy
5:53 PM 84.0 °F 85.8 °F 64.9 °F 53% 30.20 in 10.0 mi Variable 5.8 mph - N/A   Clear
6:53 PM 81.0 °F 82.5 °F 64.0 °F 56% 30.19 in 10.0 mi WSW 4.6 mph - N/A   Clear
7:53 PM 78.1 °F - 64.0 °F 62% 30.19 in 10.0 mi WSW 3.5 mph - N/A   Clear
8:53 PM 73.9 °F - 64.9 °F 73% 30.21 in 10.0 mi Calm Calm - N/A   Clear
9:53 PM 72.0 °F - 64.9 °F 78% 30.21 in 10.0 mi Calm Calm - N/A   Mostly Cloudy
10:53 PM 71.1 °F - 64.9 °F 81% 30.21 in 10.0 mi Calm Calm - N/A   Scattered Clouds
11:53 PM 68.0 °F - 64.9 °F 90% 30.20 in 10.0 mi Calm Calm - N/A   Clear